Location: Ahausen
(50.4985°N, 8.2722°E)
Time: 11:08:06
(UTC+00:00)

Lacrosse 5 rocket - Pass Details

Date: 18 September 2020
Orbit: 460 x 636 km, 57.0° (Epoch: 25 October)

Event Time Altitude Azimuth Distance (km) Brightness Sun altitude
Rises 19:46:37 0° 278° (W) 2,784 6.1 -21.0°
Reaches altitude 10° 19:48:58 10° 288° (WNW) 1,915 5.2 -21.3°
Maximum altitude 19:53:01 36° 355° (N) 972 2.8 -21.9°
Enters shadow 19:55:09 23° 45° (NE) 1,318 3.1 -22.2°
